Location: ??????
(41.3747°N, 22.5491°E)
Time: 05:52:01
(UTC+00:00)

Cosmos 1656 Rocket - Pass Details

Date: 01 December 2020
Orbit: 796 x 846 km, 71.1° (Epoch: 20 January)

Event Time Altitude Azimuth Distance (km) Brightness Sun altitude
Rises 17:05:29 0° 336° (NNW) 3,399 7.0 -22.8°
Reaches altitude 10° 17:07:57 10° 336° (NNW) 2,455 6.3 -23.2°
Maximum altitude 17:13:36 90° 50° (NE) 834 3.5 -24.3°
Enters shadow 17:17:36 20° 158° (SSE) 1,832 5.3 -25.0°
